Regional Weather Roundup
Issued by NWS

Home | Current Version | Previous Version | Text Only | Print | Product List | Glossary On
Versions: 1 2 3 4 5 6 7 8 9 10 11 12 13 14 15 16 17 18 19 20 21 22 23 24 25 26 27 28 29 30 31 32 33 34 35 36 37 38 39 40 41 42 43 44 45 46 47 48 49 50
000
ASUS45 KSLC 061310
RWRUT

UTAH REGIONAL WEATHER ROUNDUP
NATIONAL WEATHER SERVICE SALT LAKE CITY UT
600 AM MST FRI MAR 06 2015

UTZ001>011-023>025-061400-

NORTHERN UTAH

CITY           SKY/WX    TMP DP  RH WIND       PRES   REMARKS
BRIGHAM CITY   CLEAR     26  22  84 CALM      30.44R
HILL AFB       CLEAR     29  16  56 E15       30.41S WCI  18
LOGAN          CLEAR     24  18  77 W3        30.43R
OGDEN          CLEAR     29  19  66 S8        30.41S WCI  21
PROVO AIRPORT  CLEAR     27  19  74 CALM      30.44S
SALT LAKE CITY CLEAR     31  23  72 SE7       30.42S WCI  24
VERNAL         PTCLDY    21  14  74 W5        30.43R WCI  15
WENDOVER       PTCLDY    28  19  69 NE6       30.40S WCI  22
HEBER CITY     CLEAR     18  14  86 CALM      30.45S
WEST JORDAN    CLEAR     30  21  69 S6        30.43R WCI  24

$$

UTZ012>022-026-027-061400-

SOUTHERN/CENTRAL UTAH

CITY           SKY/WX    TMP DP  RH WIND       PRES   REMARKS
BLANDING       PTCLDY    25  21  85 N5        30.44S WCI  19
BRYCE CANYON   MOCLDY     2  -3  80 W14       30.40R WCI -16
CEDAR CITY     PTCLDY    18  10  71 CALM      30.38R
DELTA          PTCLDY    28  22  81 NE8       30.42S WCI  19
HANKSVILLE     CLEAR     21  19  93 CALM      30.44S
MILFORD        CLEAR     22  17  81 SW3       30.41R
MOAB/CYNLANDS  CLEAR     28  20  71 CALM      30.40S
PRICE          CLEAR     23  14  68 N9        30.39R WCI  13
ST GEORGE      SUNNY     37  25  60 S3        30.38S
KANAB          CLEAR     30  18  59 NW15      30.40R WCI  19

$$

REGIONAL REPORTS     COLORADO/ARIZONA

CITY           SKY/WX    TMP DP  RH WIND       PRES   REMARKS
CRAIG, CO      PTCLDY    10   5  80 CALM      30.42R
GRAND JUNCTION CLEAR     26  18  71 E9        30.43R WCI  17
RIFLE          PTCLDY    21  16  81 CALM      30.46S
MONTROSE       PTCLDY    22  13  68 S8        30.45R WCI  12
CORTEZ         CLEAR     19  15  84 E3        30.38S
PAGE, AZ       CLEAR     34  24  67 SW3       30.39R
GRAND CANYON     N/A    N/A N/A N/A MISG      30.35R
KINGMAN        CLEAR     34  24  67 E6        30.27S WCI  29
FLAGSTAFF      CLEAR     27  11  51 NE10      30.33S WCI  17

$$

REGIONAL REPORTS    NEVADA/IDAHO/WYOMING

CITY           SKY/WX    TMP DP  RH WIND       PRES   REMARKS
LAS VEGAS, NV  CLEAR     45  30  55 S9        30.26R
ELY            PTCLDY    18  14  84 S8        30.42R WCI   8
ELKO           MOCLDY    16  11  80 CALM      30.42S
POCATELLO, ID  CLEAR     24  21  88 N8        30.41R WCI  15
BURLEY         CLEAR     23  17  78 SE3       30.38R
EVANSTON, WY   PTCLDY    19  11  70 SW10      30.39R WCI   7
ROCK SPRINGS   PTCLDY    22  10  60 W14       30.34S WCI   9

$$


USA.gov is the U.S. government's official web portal to all federal, state and local government web resources and services.